Location: Carrières
(48.9495°N, 2.0407°E)
Time: 05:48:16
(UTC+00:00)

RESURS DK-1 - Pass Details

Date: 28 January 2023
Orbit: 549 x 558 km, 69.9° (Epoch: 29 March)

Event Time Altitude Azimuth Distance (km) Brightness Sun altitude
Rises 18:32:00 0° 338° (NNW) 2,737 6.1 -18.0°
Reaches altitude 10° 18:34:42 10° 356° (N) 1,841 5.0 -18.4°
Enters shadow 18:36:18 17° 17° (NNE) 1,463 4.2 -18.7°
